Location: Unspecified
(58.7730°N, 5.8460°E)
Time: 19:52:39
(UTC+02:00)

Cosmos 1674 - Visible Passes

Search period start: 28 April 2017 00:00
Search period end: 08 May 2017 00:00
Orbit: 500 x 522 km, 82.5° (Epoch: 26 April)

Date Brightness Start Highest point End Pass type
(mag) Time Alt. Az. Time Alt. Az. Time Alt. Az.
03 May 5.4 04:38:29 10° SE 04:41:20 20° E 04:44:12 10° NE visible
04 May 5.5 04:22:21 10° SE 04:24:54 17° E 04:27:28 10° NE visible
05 May 5.5 04:06:18 10° ESE 04:08:28 15° E 04:10:40 10° NE visible
06 May 5.6 03:50:22 10° ESE 03:52:03 13° E 03:53:45 10° NE visible
07 May 5.8 03:34:47 10° E 03:35:39 11° ENE 03:36:30 10° ENE visible
